sat.trackr.live / text

‹ back to catalog

STARLINK-1363

NORAD 45568 · 2020-025AP

PAYLOAD ACTIVE UNKNOWN

§ Identity

Operator
Country
US
Launch date
2020-04-22
Launch site
AFETR
Launch vehicle
Mass (kg)
RCS (m²)

Purposes: comms

External: N2YO · Heavens-Above · Gunter

§ Orbital elements

Epoch: 2026-05-31T22:36:07.276032Z

Period
88.23 min
Inclination
53.0201°
Eccentricity
0.0010629
Mean motion
16.32103456 rev/d
Perigee alt
179.9 km
Apogee alt
193.9 km
Semi-major
6,565.0 km
B*
7.9529e-4
RAAN
332.3898°
Arg perigee
276.8388°
Mean anomaly
83.1446°
Rev number
33,931

§ Raw data

STARLINK-13631 45568U 20025AP  26151.94175088  .04652870  12146-4  79529-3 0  99992 45568  53.0201 332.3898 0010629 276.8388  83.1446 16.32103456339313

JSON: /api/v1/satellites/45568 · /tle

For live sub-satellite position, see the globe view (requires WebGL).

§ Visibility from observer

Set your observer location to see the next 7 days of passes ≥ 10°. The values pass through the URL so the page stays shareable.

No JS? Fill the form by hand. The geolocation button needs JavaScript.